Location: Unnamed
(51.8936°N, 11.0665°E)
Time: 18:50:59
(UTC+02:00)

UKube-1 - Visible Passes

Search period start: 25 September 2021 00:00
Search period end: 05 October 2021 00:00
Orbit: 611 x 618 km, 98.4° (Epoch: 25 September)

Date Brightness Start Highest point End Pass type
(mag) Time Alt. Az. Time Alt. Az. Time Alt. Az.
25 Sep ? 21:47:24 10° NNE 21:48:49 20° NNE 21:48:49 20° NNE visible
25 Sep ? 23:23:50 10° N 23:25:51 20° NNW 23:25:51 20° NNW visible
26 Sep ? 22:02:56 10° NNE 22:04:22 20° NNE 22:04:22 20° NNE visible
26 Sep ? 23:39:46 10° NNW 23:41:25 16° NW 23:41:25 16° NW visible
27 Sep ? 22:18:31 10° NNE 22:19:56 20° NNE 22:19:56 20° NNE visible
27 Sep ? 23:55:51 10° NNW 23:56:58 13° NW 23:56:58 13° NW visible
28 Sep ? 22:34:09 10° N 22:35:29 19° N 22:35:29 19° N visible
29 Sep ? 00:12:22 10° NW 00:12:31 10° NW 00:12:31 10° NW visible
29 Sep ? 22:49:51 10° N 22:51:03 18° N 22:51:03 18° N visible
30 Sep ? 23:05:36 10° N 23:06:37 16° N 23:06:37 16° N visible
01 Oct ? 21:45:04 10° NNE 21:45:09 10° NNE 21:45:09 10° NNE visible
01 Oct ? 23:21:24 10° N 23:22:10 14° NNW 23:22:10 14° NNW visible
02 Oct ? 22:00:34 10° NNE 22:00:43 11° NNE 22:00:43 11° NNE visible
02 Oct ? 23:37:18 10° NNW 23:37:45 12° NNW 23:37:45 12° NNW visible
03 Oct ? 22:16:08 10° NNE 22:16:17 11° NNE 22:16:17 11° NNE visible
04 Oct ? 22:31:45 10° N 22:31:51 11° N 22:31:51 11° N visible
